sat.trackr.live / text

‹ back to catalog

STARLINK-6365

NORAD 57237 · 2023-094V

PAYLOAD ACTIVE UNKNOWN

§ Identity

Operator
Country
US
Launch date
2023-07-07
Launch site
AFWTR
Launch vehicle
Mass (kg)
RCS (m²)

Purposes: comms

External: N2YO · Heavens-Above · Gunter

§ Orbital elements

Epoch: 2026-09-20T13:59:30.833664Z

Period
94.27 min
Inclination
43.0043°
Eccentricity
0.0001839
Mean motion
15.27576306 rev/d
Perigee alt
481.8 km
Apogee alt
484.3 km
Semi-major
6,861.2 km
B*
-1.1178e-4
RAAN
9.9069°
Arg perigee
261.7206°
Mean anomaly
98.3437°
Rev number
17,692

§ Raw data

STARLINK-63651 57237U 23094V   26263.58299576 -.00003337  00000+0 -11178-3 0  99902 57237  43.0043   9.9069 0001839 261.7206  98.3437 15.27576306176929

JSON: /api/v1/satellites/57237 · /tle

For live sub-satellite position, see the globe view (requires WebGL).

§ Visibility from observer

Set your observer location to see the next 7 days of passes ≥ 10°. The values pass through the URL so the page stays shareable.

No JS? Fill the form by hand. The geolocation button needs JavaScript.